This is the latest recevied weather packets stored in our database for station/object KB1FFS. If no packets are shown the sender has not sent any weather packets the latest 10 day(s).
| Time | Temp. | Humidity | Pressure | Rain* | Wind** | Luminosity | Snow |
|---|---|---|---|---|---|---|---|
| 1787753635 | 31.67° C | 55% | 1016.3 hPa | 0 mm | - | 170 W/m² | - |
| 1787753334 | 31.11° C | 55% | 1016.2 hPa | 0 mm | - | 130 W/m² | - |
| 1787753029 | 30.56° C | 55% | 1016.3 hPa | 0 mm | - | 100 W/m² | - |
| 1787752728 | 30.56° C | 55% | 1016.1 hPa | 0 mm | - | 70 W/m² | - |
| 1787752423 | 30.56° C | 57% | 1016 hPa | 0 mm | - | 61 W/m² | - |
| 1787752119 | 30° C | 55% | 1016 hPa | 0 mm | - | 53 W/m² | - |
| 1787751813 | 30° C | 55% | 1016.2 hPa | 0 mm | - | 49 W/m² | - |
| 1787751508 | 29.44° C | 55% | 1016.3 hPa | 0 mm | - | 45 W/m² | - |
| 1787751203 | 29.44° C | 55% | 1016.4 hPa | 0 mm | - | 42 W/m² | - |
| 1787750899 | 29.44° C | 55% | 1016.3 hPa | 0 mm | - | 42 W/m² | - |
| 1787750594 | 28.89° C | 56% | 1016.4 hPa | 0 mm | - | 34 W/m² | - |
| 1787750289 | 28.89° C | 55% | 1016 hPa | 0 mm | - | 29 W/m² | - |
| 1787749984 | 28.33° C | 58% | 1016.3 hPa | 0 mm | - | 36 W/m² | - |
| 1787749680 | 28.33° C | 58% | 1016.1 hPa | 0 mm | - | 36 W/m² | - |
| 1787749375 | 28.33° C | 59% | 1016 hPa | 0 mm | - | 43 W/m² | - |
| 1787749074 | 28.33° C | 59% | 1016 hPa | 0 mm | - | 43 W/m² | - |
| 1787748769 | 27.78° C | 58% | 1015.9 hPa | 0 mm | - | 35 W/m² | - |
| 1787748469 | 27.78° C | 59% | 1015.9 hPa | 0 mm | - | 24 W/m² | - |
| 1787748166 | 27.22° C | 59% | 1016 hPa | 0 mm | - | 18 W/m² | - |
| 1787747865 | 27.22° C | 61% | 1015.7 hPa | 0 mm | - | 14 W/m² | - |
| 1787747561 | 27.22° C | 63% | 1015.8 hPa | 0 mm | - | 9 W/m² | - |
| 1787747260 | 27.22° C | 60% | 1015.9 hPa | 0 mm | - | 8 W/m² | - |
| 1787746956 | 27.22° C | 62% | 1015.7 hPa | 0 mm | - | 6 W/m² | - |
| 1787746651 | 27.78° C | 59% | 1015.5 hPa | 0 mm | - | 3 W/m² | - |
| 1787746350 | 27.78° C | 59% | 1015.5 hPa | 0 mm | - | 3 W/m² | - |
* Rain latest hour (hover to see other rain measurements)
** Current wind speed in m/s (hover to see current wind gust speed)